FW0267 Weather Reports


Display with metric or nautical units.
time (UTC)temp
F
wind
direction
speed
MPH
gust
MPH
rain 1hr
in
rain 24hr
in
rain mn
in
humidity
%
barometer
mb
20200222194524 54 196 0.0 5.0 0.00 0.00 0.00 26 1027.0
20200222193029 54 250 0.0 5.0 0.00 0.00 0.00 25 1027.2
20200222191508 54 234 0.0 5.0 0.00 0.00 0.00 26 1027.4
20200222190032 54 150 1.0 7.0 0.00 0.00 0.00 26 1027.8
20200222184503 54 126 0.0 4.0 0.00 0.00 0.00 27 1028.0
20200222183006 54 216 0.0 3.0 0.00 0.00 0.00 27 1028.2
20200222181625 54 128 0.0 4.0 0.00 0.00 0.00 25 1028.5
20200222180208 52 265 0.0 4.0 0.00 0.00 0.00 27 1028.9
20200222174622 51 248 0.0 4.0 0.00 0.00 0.00 28 1029.1
20200222173137 53 123 0.0 7.0 0.00 0.00 0.00 29 1029.5
20200222171719 50 194 0.0 3.0 0.00 0.00 0.00 30 1029.6
20200222170132 50 126 0.0 3.0 0.00 0.00 0.00 31 1029.9
20200222164620 49 152 0.0 2.0 0.00 0.00 0.00 35 1030.2
20200222163119 49 117 0.0 4.0 0.00 0.00 0.00 34 1030.4
20200222161845 47 167 0.0 5.0 0.00 0.00 0.00 33 1030.8
20200222160127 46 165 1.0 5.0 0.00 0.00 0.00 34 1030.9
20200222154610 44 244 0.0 4.0 0.00 0.00 0.00 38 1031.1
20200222153039 43 192 0.0 2.0 0.00 0.00 0.00 38 1031.3
20200222151534 43 160 0.0 4.0 0.00 0.00 0.00 38 1031.2
20200222150036 42 98 0.0 2.0 0.00 0.00 0.00 42 1031.2
20200222144545 40 179 0.0 2.0 0.00 0.00 0.00 46 1031.3
20200222143036 37 225 0.0 1.0 0.00 0.00 0.00 50 1031.4
20200222141517 35 237 0.0 1.0 0.00 0.00 0.00 55 1031.6
20200222140053 32 155 0.0 4.0 0.00 0.00 0.00 59 1031.6
20200222134503 30 190 0.0 2.0 0.00 0.00 0.00 64 1031.2
20200222133125 28 178 0.0 3.0 0.00 0.00 0.00 69 1031.3
20200222131624 26 191 0.0 0.0 0.00 0.00 0.00 73 1031.2
20200222130125 25 65 0.0 1.0 0.00 0.00 0.00 76 1031.2
20200222124636 24 321 0.0 0.0 0.00 0.00 0.00 78 1031.3
20200222123136 23 321 0.0 0.0 0.00 0.00 0.00 80 1031.1
20200222121719 22 321 0.0 0.0 0.00 0.00 0.00 80 1031.1
20200222120144 22 321 0.0 0.0 0.00 0.00 0.00 82 1031.1
20200222114610 22 321 0.0 0.0 0.00 0.00 0.00 81 1030.9
20200222113104 22 321 0.0 0.0 0.00 0.00 0.00 81 1030.6
20200222111636 22 321 0.0 0.0 0.00 0.00 0.00 81 1030.5
20200222110120 22 321 0.0 0.0 0.00 0.00 0.00 82 1030.4
20200222104629 22 321 0.0 0.0 0.00 0.00 0.00 82 1030.5
20200222103211 23 321 0.0 0.0 0.00 0.00 0.00 81 1030.6
20200222101546 23 321 0.0 0.0 0.00 0.00 0.00 81 1030.6
20200222100117 23 321 0.0 0.0 0.00 0.00 0.00 81 1030.5
20200222094638 23 321 0.0 0.0 0.00 0.00 0.00 80 1030.5
20200222093103 23 321 0.0 0.0 0.00 0.00 0.00 79 1030.4
20200222091549 23 321 0.0 0.0 0.00 0.00 0.00 79 1030.3
20200222090056 23 321 0.0 0.0 0.00 0.00 0.00 79 1030.5
20200222084556 23 321 0.0 0.0 0.00 0.00 0.00 80 1030.3
20200222083105 23 321 0.0 0.0 0.00 0.00 0.00 79 1030.3
20200222081612 23 321 0.0 0.0 0.00 0.00 0.00 78 1030.4
20200222080101 23 321 0.0 0.0 0.00 0.00 0.00 78 1030.3
20200222074550 23 321 0.0 0.0 0.00 0.00 0.00 78 1030.5
20200222073052 23 321 0.0 0.0 0.00 0.00 0.00 77 1030.6
20200222071618 24 321 0.0 0.0 0.00 0.00 0.00 77 1030.9
20200222070117 24 321 0.0 0.0 0.00 0.00 0.00 76 1030.9
20200222064555 24 321 0.0 0.0 0.00 0.00 0.00 76 1031.1
20200222063058 24 321 0.0 0.0 0.00 0.00 0.00 76 1031.1
20200222061612 24 321 0.0 0.0 0.00 0.00 0.00 74 1031.3
20200222060123 24 321 0.0 0.0 0.00 0.00 0.00 74 1031.5
20200222054554 24 321 0.0 0.0 0.00 0.00 0.00 73 1031.6
20200222053052 24 321 0.0 0.0 0.00 0.00 0.00 73 1031.8
20200222051528 25 321 0.0 0.0 0.00 0.00 0.00 72 1031.8
20200222050052 25 321 0.0 0.0 0.00 0.00 0.00 71 1031.8
20200222044531 25 321 0.0 0.0 0.00 0.00 0.00 70 1032.0
20200222043047 25 321 0.0 0.0 0.00 0.00 0.00 70 1032.2
20200222041517 25 321 0.0 0.0 0.00 0.00 0.00 69 1032.4
20200222040112 26 321 0.0 0.0 0.00 0.00 0.00 67 1032.7
20200222034526 26 321 0.0 0.0 0.00 0.00 0.00 66 1032.7
20200222033017 26 321 0.0 0.0 0.00 0.00 0.00 65 1032.8
20200222031543 27 321 0.0 0.0 0.00 0.00 0.00 64 1033.0
20200222030017 27 321 0.0 0.0 0.00 0.00 0.00 63 1033.0
20200222024530 27 321 0.0 0.0 0.00 0.00 0.00 62 1032.9
20200222023032 28 321 0.0 0.0 0.00 0.00 0.00 62 1033.0
20200222021618 28 321 0.0 0.0 0.00 0.00 0.00 61 1033.0
20200222020028 28 321 0.0 0.0 0.00 0.00 0.00 61 1032.9
20200222014529 29 321 0.0 0.0 0.00 0.00 0.00 58 1033.0
20200222013013 29 321 0.0 0.0 0.00 0.00 0.00 56 1033.0
20200222011517 30 321 0.0 0.0 0.00 0.00 0.00 56 1033.1
20200222010027 30 321 0.0 0.0 0.00 0.00 0.00 55 1033.3
20200222004541 31 321 0.0 0.0 0.00 0.00 0.00 53 1033.3
20200222003022 31 321 0.0 0.0 0.00 0.00 0.00 49 1033.1
20200222001516 32 321 0.0 0.0 0.00 0.00 0.00 47 1033.2
20200222000031 33 321 0.0 0.0 0.00 0.00 0.00 44 1033.1
20200221234516 34 321 0.0 0.0 0.00 0.00 0.00 40 1033.1
20200221233014 34 321 0.0 0.0 0.00 0.00 0.00 40 1033.0
20200221231519 35 321 0.0 0.0 0.00 0.00 0.00 38 1032.8
20200221230009 36 321 0.0 0.0 0.00 0.00 0.00 37 1032.9
20200221224517 37 321 0.0 0.0 0.00 0.00 0.00 36 1032.9
20200221223013 38 77 0.0 1.0 0.00 0.00 0.00 35 1032.8
20200221221536 38 338 0.0 4.0 0.00 0.00 0.00 33 1032.8
20200221220016 38 331 0.0 3.0 0.00 0.00 0.00 34 1032.8
20200221214530 38 29 1.0 5.0 0.00 0.00 0.00 32 1032.8
20200221213020 38 313 0.0 4.0 0.00 0.00 0.00 33 1032.8
20200221211511 38 315 0.0 6.0 0.00 0.00 0.00 32 1032.8
20200221210008 38 333 0.0 4.0 0.00 0.00 0.00 34 1033.0
20200221204509 38 59 0.0 9.0 0.00 0.00 0.00 34 1033.0
20200221203014 38 320 0.0 8.0 0.00 0.00 0.00 34 1033.1
20200221201522 38 324 0.0 5.0 0.00 0.00 0.00 34 1033.1
20200221200032 38 317 0.0 5.0 0.00 0.00 0.00 37 1033.1